Welcome to Northern Hawkes Bay. New Zealand.
PWS Header
      nz Flag



Hit Counter


W3C Valid W3C Valid logo


    Wairoa

Select any of the Stations below to visit their websites.










Historic Data from Weather Underground
Select the location of interest below. Wairoa is the default. Please have patience, this Data is slow to load in.
Northern Hawkes Bay Historical Data
Daily Summary for April 18, 2017 Units:  English    Metric   Both
« Previous Day
Next Day »
Daily Weekly Monthly Yearly Custom
  High: Low: Average:
Temperature: 59.9 °F 54.7 °F 57.7 °F
Dew Point: 56.3 °F 51.4 °F 54.3 °F
Humidity: 98% 74% 88%
Wind Speed: 17.4mph 0mph 7mph
Wind Gust: 22.8mph - -
Wind- - SW
Pressure: 30.2 in 30.1 in -
Precipitation: 0.05 in    
Historical Graphs
 
 
Tabular Data for April 18, 2017
Time Temperature Dew Point Pressure Wind Wind Speed Wind Gust Humidity Rainfall Rate (Hourly) solar
00:04 58.1 °F 55.2 °F 30.1 in WSW 6 mph 19.7 mph 90% 0 in 0 W/m2
00:09 58.1 °F 55.2 °F 30.1 in WSW 7.6 mph 16.8 mph 90% 0 in 0 W/m2
00:14 58.1 °F 55.2 °F 30.1 in SW 7.6 mph 16.8 mph 90% 0 in 0 W/m2
00:19 58.3 °F 55.4 °F 30.1 in SW 11.4 mph 19.7 mph 90% 0 in 0 W/m2
00:29 58.1 °F 54.9 °F 30.1 in WSW 8.3 mph 19 mph 89% 0 in 0 W/m2
00:34 58.1 °F 55.2 °F 30.1 in WSW 7.6 mph 18.3 mph 90% 0 in 0 W/m2
00:39 58.3 °F 55 °F 30.1 in SW 9.8 mph 15.9 mph 89% 0 in 0 W/m2
00:44 58.1 °F 55.2 °F 30.1 in SW 6 mph 15.9 mph 90% 0 in 0 W/m2
00:49 58.1 °F 54.9 °F 30.1 in SW 6.9 mph 15.2 mph 89% 0 in 0 W/m2
00:54 58.1 °F 54.9 °F 30.1 in SW 10.7 mph 16.8 mph 89% 0 in 0 W/m2
00:59 58.1 °F 54.9 °F 30.1 in WSW 14.5 mph 22.1 mph 89% 0 in 0 W/m2
01:04 58.1 °F 54.9 °F 30.1 in West 9.2 mph 22.1 mph 89% 0 in 0 W/m2
01:09 58.1 °F 54.9 °F 30.1 in WSW 6.9 mph 20.6 mph 89% 0 in 0 W/m2
01:14 58.1 °F 54.9 °F 30.1 in WSW 9.8 mph 17.4 mph 89% 0 in 0 W/m2
01:19 58.1 °F 54.9 °F 30.1 in WSW 13 mph 19 mph 89% 0 in 0 W/m2
01:24 58.1 °F 54.9 °F 30.1 in SW 10.7 mph 19 mph 89% 0 in 0 W/m2
01:29 58.1 °F 54.9 °F 30.1 in WSW 6 mph 19 mph 89% 0 in 0 W/m2
01:34 57.9 °F 54.7 °F 30.1 in WSW 13 mph 19.7 mph 89% 0 in 0 W/m2
01:51 58.1 °F 55.2 °F 30.1 in WSW 11.4 mph 21.3 mph 90% 0 in 0 W/m2
01:56 58.1 °F 55.2 °F 30.1 in West 10.7 mph 21.3 mph 90% 0 in 0 W/m2
02:01 58.1 °F 55.2 °F 30.1 in WSW 10.7 mph 20.6 mph 90% 0 in 0 W/m2
02:06 58.1 °F 55.2 °F 30.1 in SW 8.3 mph 17.4 mph 90% 0 in 0 W/m2
02:11 58.1 °F 55.2 °F 30.1 in WSW 9.8 mph 17.4 mph 90% 0 in 0 W/m2
02:16 58.1 °F 55.2 °F 30.1 in WSW 11.4 mph 18.3 mph 90% 0 in 0 W/m2
02:21 58.1 °F 55.2 °F 30.1 in WSW 12.1 mph 18.3 mph 90% 0 in 0 W/m2
02:26 58.3 °F 55.4 °F 30.1 in WSW 12.1 mph 18.3 mph 90% 0 in 0 W/m2
02:31 58.3 °F 55.4 °F 30.1 in WSW 12.1 mph 20.6 mph 90% 0 in 0 W/m2
02:36 58.3 °F 55.4 °F 30.1 in WSW 13.6 mph 20.6 mph 90% 0 in 0 W/m2
02:41 58.3 °F 55 °F 30.1 in SW 13 mph 21.3 mph 89% 0 in 0 W/m2
02:46 58.1 °F 54.9 °F 30.1 in WSW 10.7 mph 21.3 mph 89% 0 in 0 W/m2
02:51 58.1 °F 54.9 °F 30.1 in WSW 10.7 mph 20.6 mph 89% 0 in 0 W/m2
02:52 58.1 °F 54.9 °F 30.1 in SW 6.9 mph 20.6 mph 89% 0 in 0 W/m2
02:57 58.1 °F 54.9 °F 30.1 in SW 9.8 mph 19.7 mph 89% 0 in 0 W/m2
03:02 58.3 °F 55 °F 30.1 in SW 9.2 mph 21.3 mph 89% 0 in 0 W/m2
03:07 58.3 °F 54.9 °F 30.1 in SW 15.9 mph 21.3 mph 88% 0 in 0 W/m2
03:12 58.1 °F 54.7 °F 30.1 in SW 13 mph 19.7 mph 88% 0 in 0 W/m2
03:17 58.1 °F 54.7 °F 30.1 in SW 17.4 mph 21.3 mph 88% 0 in 0 W/m2
03:22 58.3 °F 54.9 °F 30.1 in SW 11.4 mph 21.3 mph 88% 0 in 0 W/m2
03:27 58.1 °F 54.7 °F 30.1 in WSW 9.2 mph 20.6 mph 88% 0 in 0 W/m2
03:32 58.3 °F 54.9 °F 30.1 in WSW 9.8 mph 18.3 mph 88% 0 in 0 W/m2
03:37 58.3 °F 54.3 °F 30.1 in SW 9.8 mph 21.3 mph 87% 0 in 0 W/m2
03:42 58.3 °F 54.3 °F 30.1 in SW 12.1 mph 22.8 mph 87% 0 in 0 W/m2
03:47 58.3 °F 54.3 °F 30.1 in SW 10.7 mph 22.8 mph 87% 0 in 0 W/m2
03:52 58.3 °F 54.3 °F 30.1 in SW 9.8 mph 19 mph 87% 0 in 0 W/m2
03:57 58.3 °F 54.1 °F 30.1 in SW 13.6 mph 19 mph 86% 0 in 0 W/m2
04:02 58.3 °F 54.1 °F 30.1 in SW 11.4 mph 19 mph 86% 0 in 0 W/m2
04:07 58.3 °F 54.3 °F 30.1 in WSW 12.1 mph 20.6 mph 87% 0 in 0 W/m2
04:12 58.1 °F 54.3 °F 30.1 in SW 10.7 mph 20.6 mph 87% 0 in 0 W/m2
04:17 58.1 °F 54.3 °F 30.1 in SW 8.3 mph 20.6 mph 87% 0 in 0 W/m2
04:22 58.1 °F 54.3 °F 30.1 in SW 12.1 mph 17.4 mph 87% 0 in 0 W/m2
04:40 58.3 °F 54.3 °F 30.1 in WSW 10.7 mph 19 mph 87% 0 in 0 W/m2
04:45 58.3 °F 54.3 °F 30.1 in SW 17.4 mph 20.6 mph 87% 0 in 0 W/m2
04:50 58.3 °F 54.9 °F 30.1 in SW 6 mph 20.6 mph 88% 0 in 0 W/m2
04:55 58.3 °F 54.3 °F 30.1 in WSW 9.8 mph 20.6 mph 87% 0 in 0 W/m2
05:00 58.3 °F 54.3 °F 30.1 in WSW 10.7 mph 22.1 mph 87% 0 in 0 W/m2
05:05 58.1 °F 54.3 °F 30.1 in SW 9.2 mph 22.1 mph 87% 0 in 0 W/m2
05:10 58.1 °F 54 °F 30.1 in SW 14.5 mph 20.6 mph 86% 0 in 0 W/m2
05:15 58.1 °F 54 °F 30.1 in SW 10.7 mph 20.6 mph 86% 0 in 0 W/m2
05:20 57.9 °F 53.8 °F 30.1 in SW 10.7 mph 19 mph 86% 0 in 0 W/m2
05:25 57.7 °F 53.6 °F 30.1 in SW 7.6 mph 17.4 mph 86% 0 in 0 W/m2
05:30 57.7 °F 54 °F 30.1 in WSW 14.5 mph 17.4 mph 87% 0 in 0 W/m2
05:35 57.7 °F 54 °F 30.1 in SW 10.7 mph 16.8 mph 87% 0 in 0 W/m2
05:40 57.7 °F 54 °F 30.1 in SW 9.2 mph 15.9 mph 87% 0 in 0 W/m2
05:45 57.6 °F 53.4 °F 30.1 in WSW 11.4 mph 15.9 mph 86% 0 in 0 W/m2
05:51 57.6 °F 53.8 °F 30.1 in WSW 7.6 mph 21.3 mph 87% 0 in 0 W/m2
05:56 57.6 °F 53.4 °F 30.1 in WSW 6.9 mph 21.3 mph 86% 0 in 0 W/m2
06:01 57.4 °F 53.6 °F 30.1 in WSW 11.4 mph 19 mph 87% 0 in 0 W/m2
06:06 57.4 °F 53.6 °F 30.1 in WSW 9.8 mph 14.5 mph 87% 0 in 0 W/m2
06:11 57.4 °F 53.6 °F 30.1 in WSW 8.3 mph 21.3 mph 87% 0 in 0 W/m2
06:16 57.4 °F 54 °F 30.1 in SW 13 mph 21.3 mph 88% 0 in 0 W/m2
06:21 57.2 °F 53.8 °F 30.1 in SW 6.9 mph 16.8 mph 88% 0 in 0 W/m2
06:26 57.2 °F 54 °F 30.1 in WSW 9.2 mph 17.4 mph 89% 0 in 0 W/m2
06:31 57.2 °F 54 °F 30.1 in West 10.7 mph 19 mph 89% 0 in 0 W/m2
06:36 57.2 °F 53.8 °F 30.1 in WSW 12.1 mph 19 mph 88% 0 in 0 W/m2
06:41 57.2 °F 53.8 °F 30.1 in SW 10.7 mph 18.3 mph 88% 0 in 0 W/m2
06:46 56.8 °F 54.3 °F 30.1 in WSW 9.8 mph 18.3 mph 91% 0 in 2 W/m2
06:51 56.5 °F 54.1 °F 30.1 in WSW 4.5 mph 17.4 mph 92% 0 in 4 W/m2
06:56 56.5 °F 54.9 °F 30.1 in SW 8.3 mph 14.5 mph 94% 0 in 5 W/m2
07:01 56.5 °F 55 °F 30.1 in SW 10.7 mph 15.2 mph 95% 0 in 9 W/m2
07:06 56.3 °F 54.9 °F 30.2 in WSW 6.9 mph 19.7 mph 95% 0.01 in 11 W/m2
07:11 56.1 °F 55 °F 30.2 in SW 10.7 mph 19.7 mph 96% 0.01 in 13 W/m2
07:16 55.8 °F 54.7 °F 30.2 in WSW 6 mph 19.7 mph 96% 0.01 in 16 W/m2
07:21 55.8 °F 54.7 °F 30.2 in WSW 3.1 mph 14.5 mph 96% 0.01 in 15 W/m2
07:26 55.6 °F 54.9 °F 30.2 in WSW 6.9 mph 13.6 mph 97% 0.01 in 16 W/m2
07:31 55.6 °F 54.9 °F 30.2 in WSW 6.9 mph 13.6 mph 97% 0.01 in 15 W/m2
07:36 55.4 °F 54.7 °F 30.2 in WSW 3.8 mph 15.2 mph 97% 0.01 in 21 W/m2
07:41 55.4 °F 54.7 °F 30.2 in WSW 5.4 mph 15.2 mph 97% 0.01 in 13 W/m2
07:46 55.4 °F 54.7 °F 30.2 in West 6.9 mph 12.1 mph 97% 0.01 in 20 W/m2
07:51 55.4 °F 54.7 °F 30.2 in West 6 mph 15.2 mph 97% 0.01 in 31 W/m2
07:56 55.4 °F 54.7 °F 30.2 in West 4.5 mph 16.8 mph 97% 0.01 in 36 W/m2
08:01 55.6 °F 54.9 °F 30.2 in WSW 3.8 mph 16.8 mph 97% 0.01 in 45 W/m2
08:06 55.8 °F 54.9 °F 30.2 in SW 7.6 mph 12.1 mph 97% 0 in 42 W/m2
08:11 55.9 °F 55 °F 30.2 in WSW 7.6 mph 12.1 mph 97% 0 in 46 W/m2
08:16 55.9 °F 55 °F 30.2 in WSW 3.1 mph 11.4 mph 97% 0 in 34 W/m2
08:21 55.8 °F 54.9 °F 30.2 in SW 6.9 mph 15.2 mph 97% 0 in 27 W/m2
08:26 55.8 °F 54.7 °F 30.2 in SW 6 mph 15.9 mph 96% 0 in 35 W/m2
08:31 55.8 °F 54.7 °F 30.2 in WSW 4.5 mph 15.9 mph 96% 0 in 49 W/m2
08:36 55.9 °F 54.9 °F 30.2 in West 7.6 mph 14.5 mph 96% 0 in 41 W/m2
08:41 56.1 °F 55 °F 30.2 in West 9.2 mph 13.6 mph 96% 0 in 55 W/m2
08:46 55.9 °F 54.9 °F 30.2 in WSW 9.2 mph 15.9 mph 96% 0 in 45 W/m2
08:51 55.9 °F 54.9 °F 30.2 in WSW 8.3 mph 15.9 mph 96% 0 in 67 W/m2
08:56 55.8 °F 54.7 °F 30.2 in WSW 6.9 mph 15.9 mph 96% 0.01 in 79 W/m2
09:01 55.6 °F 54.9 °F 30.2 in WSW 0.7 mph 15.9 mph 97% 0.01 in 68 W/m2
09:06 55.6 °F 54.9 °F 30.2 in WSW 3.8 mph 13.6 mph 97% 0.01 in 118 W/m2
09:11 55.6 °F 54.9 °F 30.2 in WSW 3.1 mph 12.1 mph 97% 0.01 in 77 W/m2
09:16 55.6 °F 54.9 °F 30.2 in WSW 5.4 mph 12.1 mph 97% 0.01 in 68 W/m2
09:21 55.6 °F 55 °F 30.2 in WSW 6.9 mph 10.7 mph 98% 0.01 in 80 W/m2
09:26 55.8 °F 55.2 °F 30.2 in WSW 6 mph 10.7 mph 98% 0.01 in 73 W/m2
09:31 55.8 °F 55.2 °F 30.2 in WSW 5.4 mph 9.8 mph 98% 0.01 in 97 W/m2
09:36 56.1 °F 55.2 °F 30.2 in WSW 10.7 mph 15.9 mph 97% 0.01 in 98 W/m2
09:41 56.5 °F 55.6 °F 30.2 in West 10.7 mph 16.8 mph 97% 0.02 in 85 W/m2
09:46 56.8 °F 55.4 °F 30.2 in WSW 11.4 mph 19 mph 95% 0.02 in 115 W/m2
09:51 57.4 °F 55 °F 30.2 in WSW 9.2 mph 19 mph 92% 0.02 in 169 W/m2
09:56 58.1 °F 55.6 °F 30.2 in SW 9.2 mph 19 mph 91% 0.01 in 204 W/m2
10:01 58.5 °F 55.6 °F 30.2 in SW 13.6 mph 15.9 mph 90% 0.01 in 228 W/m2
10:06 58.8 °F 55.2 °F 30.2 in WSW 5.4 mph 15.9 mph 88% 0.01 in 212 W/m2
10:11 59 °F 55 °F 30.2 in WSW 11.4 mph 17.4 mph 87% 0.01 in 136 W/m2
10:16 59 °F 55 °F 30.2 in WSW 9.2 mph 17.4 mph 87% 0.01 in 191 W/m2
10:21 59.4 °F 55.2 °F 30.2 in SW 9.2 mph 19 mph 86% 0.01 in 173 W/m2
10:26 59.4 °F 54.9 °F 30.2 in SW 10.7 mph 19 mph 85% 0.01 in 158 W/m2
10:31 59.5 °F 55 °F 30.2 in WSW 9.2 mph 15.9 mph 85% 0.01 in 266 W/m2
10:36 59.7 °F 54.9 °F 30.2 in WSW 13.6 mph 17.4 mph 84% 0.01 in 200 W/m2
10:41 59.5 °F 54.7 °F 30.2 in SW 13.6 mph 18.3 mph 84% 0 in 171 W/m2
10:46 59.5 °F 54.7 °F 30.2 in SW 10.7 mph 18.3 mph 84% 0 in 195 W/m2
10:51 59.5 °F 54.7 °F 30.2 in SW 6.9 mph 18.3 mph 84% 0 in 181 W/m2
10:56 59.5 °F 54.7 °F 30.2 in WSW 10.7 mph 18.3 mph 84% 0 in 139 W/m2
11:01 59.5 °F 54.7 °F 30.2 in SW 11.4 mph 16.8 mph 84% 0 in 125 W/m2
11:06 59.4 °F 54.5 °F 30.2 in SW 11.4 mph 16.8 mph 84% 0 in 97 W/m2
11:11 59 °F 54.1 °F 30.2 in SW 13 mph 17.4 mph 84% 0 in 100 W/m2
11:16 59 °F 54.1 °F 30.2 in SW 11.4 mph 19.7 mph 84% 0 in 117 W/m2
11:21 59 °F 54.1 °F 30.2 in SW 13 mph 19.7 mph 84% 0 in 131 W/m2
11:26 59 °F 54.1 °F 30.2 in SW 12.1 mph 19 mph 84% 0 in 122 W/m2
11:31 59.2 °F 54.3 °F 30.2 in SW 10.7 mph 17.4 mph 84% 0 in 155 W/m2
11:36 59.4 °F 54.1 °F 30.2 in SW 7.6 mph 15.9 mph 83% 0 in 163 W/m2
11:41 59.5 °F 54.7 °F 30.2 in SW 12.1 mph 18.3 mph 84% 0 in 212 W/m2
11:46 59.7 °F 54.9 °F 30.2 in SW 10.7 mph 18.3 mph 84% 0 in 201 W/m2
11:51 59.7 °F 54.9 °F 30.2 in SW 7.6 mph 18.3 mph 84% 0 in 188 W/m2
11:56 59.5 °F 55 °F 30.2 in SW 9.2 mph 17.4 mph 85% 0 in 194 W/m2
12:01 59.5 °F 54.7 °F 30.2 in WSW 7.6 mph 17.4 mph 84% 0 in 249 W/m2
12:06 59.5 °F 55 °F 30.2 in SW 10.7 mph 16.8 mph 85% 0 in 219 W/m2
12:11 59.4 °F 55.2 °F 30.2 in SW 13.6 mph 18.3 mph 86% 0 in 240 W/m2
12:16 59.2 °F 54.7 °F 30.2 in WSW 9.8 mph 18.3 mph 85% 0 in 227 W/m2
12:21 59.4 °F 54.9 °F 30.2 in WSW 6.9 mph 18.3 mph 85% 0 in 230 W/m2
12:24 59.4 °F 54.9 °F 30.2 in SW 9.2 mph 15.9 mph 85% 0 in 179 W/m2
12:29 59.2 °F 55 °F 30.2 in SW 7.6 mph 17.4 mph 86% 0 in 272 W/m2
12:34 59.5 °F 55.4 °F 30.2 in WSW 9.8 mph 17.4 mph 86% 0 in 267 W/m2
12:39 59.9 °F 55 °F 30.2 in West 8.3 mph 14.5 mph 84% 0 in 153 W/m2
12:44 59.7 °F 54.7 °F 30.2 in WSW 9.2 mph 16.8 mph 83% 0 in 107 W/m2
12:49 59 °F 54.5 °F 30.2 in SW 10.7 mph 18.3 mph 85% 0 in 152 W/m2
12:54 58.1 °F 54.9 °F 30.2 in SW 10.7 mph 18.3 mph 89% 0 in 168 W/m2
12:59 57.6 °F 55.2 °F 30.2 in SW 9.8 mph 17.4 mph 92% 0 in 180 W/m2
13:04 57.4 °F 55.4 °F 30.2 in SW 9.2 mph 17.4 mph 93% 0 in 213 W/m2
13:09 57.4 °F 55.8 °F 30.2 in SW 9.2 mph 16.8 mph 94% 0 in 235 W/m2
13:10 57.4 °F 55.8 °F 30.2 in SW 9.2 mph 16.8 mph 94% 0 in 243 W/m2
13:15 57.6 °F 56.1 °F 30.2 in SW 11.4 mph 15.9 mph 95% 0 in 239 W/m2
13:20 57.7 °F 56.3 °F 30.2 in WSW 7.6 mph 15.9 mph 95% 0 in 184 W/m2
13:26 57.4 °F 55.8 °F 30.2 in WSW 5.4 mph 14.5 mph 94% 0 in 120 W/m2
13:31 57.7 °F 55.9 °F 30.2 in Calm   14.5 mph 94% 0 in 164 W/m2
13:36 57.9 °F 56.1 °F 30.2 in West 3.1 mph 8.3 mph 94% 0 in 94 W/m2
13:41 57.9 °F 55.9 °F 30.2 in SW 6.9 mph 15.2 mph 93% 0 in 81 W/m2
13:46 58.6 °F 55 °F 30.2 in SW 7.6 mph 17.4 mph 88% 0 in 92 W/m2
13:51 59 °F 54.5 °F 30.2 in SSW 8.3 mph 20.6 mph 85% 0 in 92 W/m2
13:56 59.2 °F 55 °F 30.2 in SSW 10.7 mph 20.6 mph 86% 0 in 131 W/m2
14:01 59.4 °F 55.2 °F 30.2 in SSW 10.7 mph 19.7 mph 86% 0 in 130 W/m2
14:19 59.4 °F 54.9 °F 30.2 in SSW 9.8 mph 16.8 mph 85% 0 in 123 W/m2
14:24 59.2 °F 54.7 °F 30.2 in SW 10.7 mph 17.4 mph 85% 0 in 135 W/m2
14:29 59.4 °F 54.5 °F 30.2 in SSW 6.9 mph 17.4 mph 84% 0 in 135 W/m2
14:34 59.5 °F 54.7 °F 30.2 in SSW 6 mph 17.4 mph 84% 0 in 123 W/m2
14:39 59.5 °F 54.7 °F 30.2 in SSW 6 mph 15.2 mph 84% 0 in 105 W/m2
14:44 59.4 °F 54.5 °F 30.2 in SSW 8.3 mph 15.2 mph 84% 0 in 94 W/m2
14:49 59.5 °F 54.3 °F 30.2 in SSW 6.9 mph 13 mph 83% 0 in 84 W/m2
14:54 59.5 °F 54.3 °F 30.2 in SSW 6.9 mph 13 mph 83% 0 in 85 W/m2
15:00 59.5 °F 54.3 °F 30.2 in SSW 7.6 mph 13 mph 83% 0 in 84 W/m2
15:05 59.7 °F 54.7 °F 30.2 in SSW 6.9 mph 13.6 mph 83% 0 in 94 W/m2
15:10 59.7 °F 54.7 °F 30.2 in SSW 9.2 mph 13.6 mph 83% 0 in 104 W/m2
15:15 59.7 °F 54.7 °F 30.2 in SSW 9.8 mph 14.5 mph 83% 0 in 114 W/m2
15:20 59.9 °F 54.7 °F 30.2 in SW 9.2 mph 15.2 mph 83% 0 in 107 W/m2
15:26 59.9 °F 54.7 °F 30.2 in SSW 7.6 mph 15.2 mph 83% 0.01 in 78 W/m2
15:31 58.8 °F 54.3 °F 30.2 in SSW 7.6 mph 15.9 mph 85% 0.01 in 67 W/m2
15:36 58.3 °F 54.1 °F 30.2 in SSW 6.9 mph 15.9 mph 86% 0.01 in 69 W/m2
15:41 58.5 °F 54.3 °F 30.2 in SSW 6.9 mph 14.5 mph 86% 0.01 in 79 W/m2
15:46 58.8 °F 54 °F 30.2 in South 9.8 mph 14.5 mph 84% 0.01 in 87 W/m2
15:51 59.2 °F 54 °F 30.2 in SSW 8.3 mph 13 mph 83% 0.01 in 84 W/m2
16:01 59.5 °F 53.4 °F 30.2 in SSW 5.4 mph 14.5 mph 80% 0.01 in 64 W/m2
16:06 59.7 °F 54 °F 30.2 in South 6 mph 13.6 mph 81% 0.01 in 61 W/m2
16:11 59.7 °F 53.6 °F 30.2 in SSW 4.5 mph 13 mph 80% 0.01 in 54 W/m2
16:16 59.7 °F 54.1 °F 30.2 in SSW 5.4 mph 13 mph 82% 0.01 in 33 W/m2
16:21 59.7 °F 54.1 °F 30.2 in South 6.9 mph 11.4 mph 82% 0.01 in 32 W/m2
16:26 59.7 °F 54 °F 30.2 in South 11.4 mph 15.9 mph 81% 0 in 33 W/m2
16:31 59.5 °F 53.4 °F 30.2 in SSW 9.8 mph 15.9 mph 80% 0 in 37 W/m2
16:36 59.5 °F 53.1 °F 30.2 in SSW 8.3 mph 13.6 mph 79% 0 in 31 W/m2
16:41 59.5 °F 53.1 °F 30.2 in SSW 7.6 mph 13 mph 79% 0 in 22 W/m2
16:46 59.5 °F 52.7 °F 30.2 in SSW 6.9 mph 12.1 mph 78% 0 in 13 W/m2
16:51 59.4 °F 52.2 °F 30.2 in SSW 5.4 mph 12.1 mph 77% 0 in 13 W/m2
16:56 59.5 °F 52.7 °F 30.2 in SSW 6.9 mph 11.4 mph 78% 0 in 9 W/m2
17:01 59.5 °F 52.7 °F 30.2 in SSW 5.4 mph 11.4 mph 78% 0 in 8 W/m2
17:06 59.5 °F 52.3 °F 30.2 in SW 7.6 mph 10.7 mph 77% 0 in 8 W/m2
17:11 59.5 °F 52 °F 30.2 in SSW 6.9 mph 12.1 mph 76% 0 in 7 W/m2
17:16 59.7 °F 52.2 °F 30.2 in SSW 4.5 mph 12.1 mph 76% 0 in 5 W/m2
17:21 59.7 °F 52.2 °F 30.2 in SSW 5.4 mph 12.1 mph 76% 0 in 2 W/m2
17:26 59.7 °F 52.2 °F 30.2 in South 9.2 mph 12.1 mph 76% 0 in 2 W/m2
17:31 59.7 °F 51.4 °F 30.2 in South 5.4 mph 12.1 mph 74% 0 in 1 W/m2
17:36 59.7 °F 52.2 °F 30.2 in SSW 6 mph 12.1 mph 76% 0 in 0 W/m2
17:41 59.7 °F 52.5 °F 30.2 in South 8.3 mph 12.1 mph 77% 0 in 0 W/m2
17:46 59.5 °F 52 °F 30.2 in South 5.4 mph 11.4 mph 76% 0 in 0 W/m2
17:51 59.5 °F 51.6 °F 30.2 in South 6.9 mph 11.4 mph 75% 0 in 0 W/m2
17:56 59.7 °F 52.2 °F 30.2 in South 9.2 mph 13 mph 76% 0 in 0 W/m2
18:01 59.7 °F 52.2 °F 30.2 in South 5.4 mph 13 mph 76% 0 in 0 W/m2
18:06 59.5 °F 52 °F 30.2 in South 7.6 mph 12.1 mph 76% 0 in 0 W/m2
18:11 59.4 °F 51.8 °F 30.2 in South 5.4 mph 10.7 mph 76% 0 in 0 W/m2
18:16 59.4 °F 52.2 °F 30.2 in South 5.4 mph 10.7 mph 77% 0 in 0 W/m2
18:21 59.5 °F 52.3 °F 30.2 in South 6 mph 10.7 mph 77% 0 in 0 W/m2
18:26 59.5 °F 52.7 °F 30.2 in SSW 8.3 mph 14.5 mph 78% 0 in 0 W/m2
18:31 59.5 °F 52.3 °F 30.2 in SSW 5.4 mph 14.5 mph 77% 0 in 0 W/m2
18:36 59.7 °F 52.5 °F 30.2 in SSW 6.9 mph 14.5 mph 77% 0 in 0 W/m2
18:41 59.7 °F 52.5 °F 30.2 in South 2.2 mph 10.7 mph 77% 0 in 0 W/m2
18:46 59.7 °F 52.5 °F 30.2 in South 4.5 mph 10.7 mph 77% 0 in 0 W/m2
18:51 59.7 °F 52.5 °F 30.2 in South 6 mph 9.2 mph 77% 0 in 0 W/m2
18:56 59.7 °F 51.8 °F 30.2 in South 5.4 mph 9.2 mph 75% 0 in 0 W/m2
19:01 59.7 °F 51.8 °F 30.2 in South 5.4 mph 8.3 mph 75% 0 in 0 W/m2
19:06 59.7 °F 52.2 °F 30.2 in South 5.4 mph 9.2 mph 76% 0 in 0 W/m2
19:11 59.5 °F 51.6 °F 30.2 in Calm   9.2 mph 75% 0 in 0 W/m2
19:16 59.5 °F 52 °F 30.2 in South 1.6 mph 6.9 mph 76% 0 in 0 W/m2
19:21 59.4 °F 51.8 °F 30.2 in SSW 3.1 mph 6.9 mph 76% 0 in 0 W/m2
19:26 59.4 °F 51.8 °F 30.2 in SW 3.1 mph 6.9 mph 76% 0 in 0 W/m2
19:31 59 °F 52.2 °F 30.2 in West 1.6 mph 6 mph 78% 0 in 0 W/m2
19:36 58.1 °F 52.5 °F 30.2 in WNW 3.1 mph 4.5 mph 82% 0 in 0 W/m2
19:41 57.2 °F 52.7 °F 30.2 in Calm   6.9 mph 85% 0 in 0 W/m2
19:46 56.8 °F 53.1 °F 30.2 in WNW 1.6 mph 6.9 mph 87% 0 in 0 W/m2
19:51 56.7 °F 53.2 °F 30.2 in Calm   3.8 mph 88% 0 in 0 W/m2
19:56 56.5 °F 53.1 °F 30.2 in Calm   3.8 mph 88% 0 in 0 W/m2
20:01 56.5 °F 53.2 °F 30.2 in NW 3.8 mph 4.5 mph 89% 0 in 0 W/m2
20:06 56.5 °F 53.6 °F 30.2 in Calm   5.4 mph 90% 0 in 0 W/m2
20:11 56.3 °F 53.8 °F 30.2 in NW 3.8 mph 5.4 mph 91% 0 in 0 W/m2
20:16 56.1 °F 53.8 °F 30.2 in NNW 4.5 mph 6.9 mph 92% 0 in 0 W/m2
20:21 56.1 °F 54.1 °F 30.2 in NNW 0.7 mph 6.9 mph 93% 0 in 0 W/m2
20:26 56.1 °F 54.3 °F 30.2 in NW 2.2 mph 6 mph 94% 0 in 0 W/m2
20:31 55.9 °F 54.1 °F 30.2 in NNW 1.6 mph 5.4 mph 94% 0 in 0 W/m2
20:36 55.9 °F 54.5 °F 30.2 in Calm   4.5 mph 95% 0 in 0 W/m2
20:41 55.9 °F 54.5 °F 30.2 in Calm   3.8 mph 95% 0 in 0 W/m2
20:46 55.8 °F 54.3 °F 30.2 in Calm   4.5 mph 95% 0 in 0 W/m2
20:51 55.8 °F 54.3 °F 30.2 in Calm   4.5 mph 95% 0 in 0 W/m2
20:56 55.8 °F 54.3 °F 30.2 in Calm     95% 0 in 0 W/m2
21:01 55.6 °F 54.5 °F 30.2 in Calm     96% 0 in 0 W/m2
21:06 55.6 °F 54.5 °F 30.2 in Calm   3.1 mph 96% 0 in 0 W/m2
21:11 55.6 °F 54.5 °F 30.2 in Calm   3.1 mph 96% 0 in 0 W/m2
21:16 55.6 °F 54.5 °F 30.2 in Calm   3.1 mph 96% 0 in 0 W/m2
21:21 55.6 °F 54.5 °F 30.2 in Calm   3.1 mph 96% 0 in 0 W/m2
21:26 55.6 °F 54.9 °F 30.2 in Calm   3.1 mph 97% 0 in 0 W/m2
21:31 55.4 °F 54.7 °F 30.2 in Calm   3.1 mph 97% 0 in 0 W/m2
21:36 55.4 °F 54.7 °F 30.2 in Calm     97% 0 in 0 W/m2
21:41 55.4 °F 54.7 °F 30.2 in Calm     97% 0 in 0 W/m2
21:46 55.4 °F 54.7 °F 30.2 in Calm     97% 0 in 0 W/m2
21:51 55.4 °F 54.7 °F 30.2 in Calm     97% 0 in 0 W/m2
21:56 55.4 °F 54.7 °F 30.2 in Calm     97% 0 in 0 W/m2
22:01 55.4 °F 54.7 °F 30.2 in Calm     97% 0 in 0 W/m2
22:06 55.4 °F 54.7 °F 30.2 in Calm     97% 0 in 0 W/m2
22:11 55.2 °F 54.3 °F 30.2 in Calm     97% 0 in 0 W/m2
22:16 55.2 °F 54.3 °F 30.2 in Calm     97% 0 in 0 W/m2
22:21 55.2 °F 54.3 °F 30.2 in Calm     97% 0 in 0 W/m2
22:26 55.2 °F 54.3 °F 30.2 in Calm     97% 0 in 0 W/m2
22:43 55.2 °F 54.3 °F 30.2 in Calm     97% 0 in 0 W/m2
22:48 55.2 °F 54.3 °F 30.2 in Calm   0.7 mph 97% 0 in 0 W/m2
22:53 55.4 °F 54.7 °F 30.2 in Calm   0.7 mph 97% 0 in 0 W/m2
22:58 55.4 °F 54.7 °F 30.2 in Calm     97% 0 in 0 W/m2
23:03 55.4 °F 54.7 °F 30.2 in Calm   2.2 mph 97% 0 in 0 W/m2
23:08 55.4 °F 54.3 °F 30.2 in Calm   5.4 mph 96% 0 in 0 W/m2
23:13 55.4 °F 54 °F 30.2 in Calm   5.4 mph 95% 0 in 0 W/m2
23:18 55.4 °F 54 °F 30.2 in Calm   3.1 mph 95% 0 in 0 W/m2
23:23 55.2 °F 53.4 °F 30.2 in Calm   2.2 mph 94% 0 in 0 W/m2
23:28 55.2 °F 53.4 °F 30.2 in Calm     94% 0 in 0 W/m2
23:33 55.2 °F 53.4 °F 30.2 in Calm     94% 0 in 0 W/m2
23:38 55.2 °F 53.2 °F 30.2 in Calm   3.1 mph 93% 0 in 0 W/m2
23:43 55 °F 53.1 °F 30.2 in Calm   3.1 mph 93% 0 in 0 W/m2
23:48 54.9 °F 52.9 °F 30.2 in Calm     93% 0 in 0 W/m2
23:53 54.7 °F 52.7 °F 30.2 in Calm     93% 0 in 0 W/m2
23:58 54.7 °F 52.7 °F 30.2 in Calm     93% 0 in 0 W/m2
Northern Hawkes Bay. New Zealand Historic Data
Compliments of Weather Underground - 2.25 mb